QPF
0.00 0.00 0.00 0.00 0.00 0.00 0.00 0.00 0.00 0.01 0.06 0.08 0.01 0.00 0.01 0.02 0.00 0.09 0.17 0.04 0.00 0.00 0.00 0.00 0.00 0.00 0.00 0.00 0.00 0.00 0.00 0.00 0.00 0.00 0.00 0.00 0.00 0.00 0.00 0.00 0.00 0.00 0.00 0.00 0.00 0.00 0.00 0.00 0.00
0.00 0.00 0.00 0.00 0.00 0.00 0.00 0.00 0.01 0.01 0.04 0.04 0.00 0.00 0.00 0.01 0.00 0.04 0.14 0.06 0.00 0.00 0.00 0.00 0.00 0.00 0.00 0.00 0.00 0.00 0.00 0.00 0.00 0.00 0.00 0.00 0.00 0.00 0.00 0.00 0.00 0.00 0.00 0.00 0.00 0.00 0.00 0.00 0.00
0.00 0.00 0.00 0.00 0.00 0.00 0.00 0.00 0.01 0.00 0.03 0.01 0.00 0.00 0.00 0.01 0.03 0.02 0.02 0.01 0.00 0.00 0.00 0.00 0.00 0.00 0.00 0.00 0.00 0.00 0.00 0.00 0.00 0.00 0.00 0.00 0.00 0.00 0.00 0.00 0.00 0.00 0.00 0.00 0.00 0.00 0.00 0.00 0.00
0.00 0.00 0.00 0.00 0.00 0.00 0.00 0.01 0.00 0.01 0.02 0.03 0.00 0.00 0.00 0.00 0.00 0.01 0.03 0.01 0.01 0.00 0.00 0.00 0.00 0.00 0.00 0.00 0.00 0.00 0.00 0.00 0.00 0.00 0.00 0.00 0.00 0.00 0.00 0.00 0.00 0.00 0.00 0.00 0.00 0.00 0.00 0.00 0.00
0.00 0.00 0.00 0.00 0.00 0.00 0.00 0.00 0.01 0.01 0.00 0.02 0.00 0.00 0.00 0.00 0.00 0.01 0.03 0.03 0.00 0.00 0.00 0.00 0.00 0.00 0.00 0.00 0.00 0.00 0.00 0.00 0.00 0.00 0.00 0.00 0.00 0.00 0.00 0.00 0.00 0.00 0.00 0.00 0.00 0.00 0.00 0.00 0.00
0.00 0.00 0.00 0.00 0.00 0.00 0.04 0.01 0.02 0.01 0.00 0.00 0.03 0.00 0.02 0.03 0.02 0.05 0.12 0.18 0.04 0.00 0.00 0.00 0.00 0.00 0.00 0.00 0.00 0.00 0.00 0.00 0.00 0.00 0.00 0.00 0.00 0.00 0.00 0.00 0.00 0.00 0.00 0.00 0.00 0.00 0.00 0.00 0.00
0.00 0.00 0.00 0.00 0.00 0.00 0.01 0.01 0.00 0.00 0.00 0.00 0.01 0.00 0.07 0.07 0.03 0.02 0.03 0.04 0.08 0.01 0.00 0.00 0.00 0.00 0.00 0.00 0.00 0.00 0.00 0.00 0.00 0.00 0.00 0.00 0.00 0.00 0.00 0.00 0.00 0.00 0.00 0.00 0.00 0.00 0.00 0.00 0.00
0.00 0.00 0.00 0.00 0.00 0.00 0.00 0.00 0.00 0.00 0.00 0.00 0.00 0.00 0.04 0.01 0.01 0.00 0.00 0.00 0.03 0.02 0.00 0.00 0.00 0.00 0.00 0.00 0.00 0.00 0.00 0.00 0.00 0.00 0.00 0.00 0.00 0.00 0.00 0.00 0.00 0.00 0.00 0.00 0.00 0.00 0.00 0.00 0.00
0.00 0.00 0.00 0.00 0.00 0.00 0.00 0.00 0.00 0.00 0.00 0.00 0.00 0.01 0.01 0.01 0.01 0.00 0.00 0.02 0.01 0.00 0.00 0.00 0.00 0.00 0.00 0.00 0.00 0.00 0.00 0.00 0.00 0.00 0.00 0.00 0.00 0.00 0.00 0.00 0.00 0.00 0.00 0.00 0.00 0.00 0.00 0.00 0.00
0.00 0.00 0.00 0.00 0.00 0.00 0.00 0.00 0.00 0.00 0.00 0.00 0.00 0.00 0.00 0.00 0.00 0.00 0.00 0.00 0.00 0.00 0.00 0.00 0.00 0.00 0.00 0.00 0.00 0.00 0.00 0.00 0.00 0.00 0.00 0.00 0.00 0.00 0.00 0.00 0.00 0.00 0.00 0.00 0.00 0.00 0.00 0.00 0.00
0.00 0.00 0.00 0.00 0.00 0.00 0.00 0.00 0.00 0.00 0.00 0.00 0.00 0.00 0.00 0.00 0.00 0.00 0.00 0.00 0.00 0.00 0.00 0.00 0.00 0.00 0.00 0.00 0.00 0.00 0.00 0.00 0.00 0.00 0.00 0.00 0.00 0.00 0.00 0.00 0.00 0.00 0.00 0.00 0.00 0.00 0.00 0.00 0.00
0.00 0.00 0.00 0.00 0.00 0.00 0.00 0.00 0.00 0.00 0.00 0.00 0.00 0.00 0.00 0.00 0.00 0.00 0.00 0.00 0.00 0.00 0.00 0.00 0.00 0.00 0.00 0.00 0.00 0.00 0.00 0.00 0.00 0.00 0.00 0.00 0.00 0.00 0.00 0.00 0.00 0.00 0.00 0.00 0.00 0.00 0.00 0.00 0.00
0.00 0.00 0.00 0.00 0.00 0.00 0.00 0.00 0.00 0.00 0.00 0.00 0.00 0.00 0.00 0.00 0.00 0.00 0.00 0.00 0.00 0.00 0.00 0.00 0.00 0.00 0.00 0.00 0.00 0.00 0.00 0.00 0.00 0.00 0.00 0.00 0.00 0.00 0.00 0.00 0.00 0.00 0.00 0.00 0.00 0.00 0.00 0.00 0.00
0.00 0.00 0.00 0.00 0.00 0.00 0.00 0.00 0.00 0.00 0.00 0.00 0.00 0.00 0.00 0.00 0.00 0.00 0.00 0.00 0.00 0.00 0.00 0.00 0.00 0.00 0.00 0.00 0.00 0.00 0.00 0.00 0.00 0.00 0.00 0.00 0.00 0.00 0.00 0.00 0.00 0.00 0.00 0.00 0.00 0.00 0.00 0.00 0.00
0.00 0.00 0.00 0.00 0.00 0.00 0.00 0.00 0.00 0.00 0.00 0.00 0.00 0.00 0.00 0.00 0.00 0.00 0.00 0.00 0.00 0.00 0.00 0.00 0.00 0.00 0.00 0.00 0.00 0.00 0.00 0.00 0.00 0.00 0.00 0.00 0.00 0.00 0.00 0.00 0.00 0.00 0.00 0.00 0.00 0.00 0.00 0.00 0.00
0.00 0.00 0.00 0.00 0.00 0.00 0.00 0.00 0.00 0.00 0.00 0.00 0.00 0.00 0.00 0.00 0.00 0.00 0.00 0.00 0.00 0.00 0.00 0.00 0.00 0.00 0.00 0.00 0.00 0.00 0.00 0.00 0.00 0.00 0.00 0.00 0.00 0.00 0.00 0.00 0.00 0.00 0.00 0.00 0.00 0.00 0.00 0.00 0.00
0.00 0.00 0.00 0.00 0.00 0.00 0.00 0.00 0.00 0.00 0.00 0.00 0.00 0.00 0.00 0.00 0.00 0.00 0.00 0.00 0.00 0.00 0.00 0.00 0.00 0.00 0.00 0.00 0.00 0.00 0.00 0.00 0.00 0.00 0.00 0.00 0.00 0.00 0.00 0.00 0.00 0.00 0.00 0.00 0.00 0.00 0.00 0.00 0.00
0.00 0.00 0.00 0.00 0.00 0.00 0.00 0.00 0.00 0.00 0.00 0.00 0.00 0.00 0.00 0.00 0.00 0.00 0.00 0.00 0.00 0.00 0.00 0.00 0.00 0.00 0.00 0.00 0.00 0.00 0.00 0.00 0.00 0.00 0.00 0.00 0.00 0.00 0.00 0.00 0.00 0.00 0.00 0.00 0.00 0.00 0.00 0.00 0.00
0.00 0.00 0.00 0.00 0.00 0.00 0.00 0.00 0.00 0.00 0.00 0.00 0.00 0.00 0.00 0.00 0.00 0.00 0.00 0.00 0.00 0.00 0.00 0.00 0.00 0.00 0.00 0.00 0.00 0.00 0.00 0.00 0.00 0.00 0.00 0.00 0.00 0.00 0.00 0.00 0.00 0.00 0.00 0.00 0.00 0.00 0.00 0.00 0.00
0.00 0.00 0.00 0.00 0.00 0.00 0.00 0.00 0.00 0.00 0.00 0.00 0.00 0.00 0.00 0.00 0.00 0.00 0.00 0.00 0.00 0.00 0.00 0.00 0.00 0.00 0.00 0.00 0.00 0.00 0.00 0.00 0.00 0.00 0.00 0.00 0.00 0.00 0.00 0.00 0.00 0.00 0.00 0.00 0.00 0.00 0.00 0.00 0.00
0.00 0.00 0.00 0.00 0.00 0.00 0.00 0.00 0.00 0.00 0.00 0.00 0.00 0.00 0.00 0.00 0.00 0.00 0.00 0.00 0.00 0.00 0.00 0.00 0.00 0.00 0.00 0.00 0.00 0.00 0.00 0.00 0.00 0.00 0.00 0.00 0.00 0.00 0.00 0.00 0.00 0.00 0.00 0.00 0.00 0.00 0.00 0.00 0.00
0.00 0.00 0.00 0.00 0.00 0.00 0.00 0.00 0.00 0.00 0.00 0.00 0.00 0.00 0.00 0.00 0.00 0.00 0.00 0.00 0.00 0.00 0.00 0.00 0.00 0.00 0.00 0.00 0.00 0.00 0.00 0.00 0.00 0.00 0.00 0.00 0.00 0.00 0.00 0.00 0.00 0.00 0.00 0.00 0.00 0.00 0.00 0.00 0.00
0.00 0.00 0.00 0.00 0.00 0.00 0.00 0.00 0.00 0.00 0.00 0.00 0.00 0.00 0.00 0.00 0.00 0.00 0.02 0.02 0.01 0.00 0.00 0.00 0.00 0.00 0.00 0.00 0.00 0.00 0.00 0.00 0.00 0.00 0.00 0.00 0.00 0.00 0.00 0.00 0.00 0.00 0.00 0.00 0.00 0.00 0.00 0.00 0.02
0.00 0.00 0.00 0.00 0.00 0.00 0.00 0.00 0.00 0.01 0.01 0.01 0.00 0.00 0.00 0.00 0.00 0.01 0.02 0.01 0.00 0.00 0.00 0.00 0.00 0.00 0.00 0.00 0.00 0.00 0.00 0.00 0.00 0.00 0.00 0.00 0.00 0.00 0.00 0.00 0.00 0.00 0.00 0.00 0.00 0.01 0.01 0.02 0.04
0.00 0.00 0.00 0.00 0.00 0.00 0.00 0.00 0.00 0.00 0.00 0.00 0.01 0.01 0.00 0.02 0.03 0.02 0.00 0.00 0.00 0.00 0.00 0.00 0.00 0.00 0.00 0.00 0.00 0.00 0.00 0.00 0.00 0.00 0.00 0.00 0.00 0.00 0.00 0.00 0.00 0.00 0.01 0.00 0.01 0.01 0.01 0.01 0.01
0.00 0.00 0.00 0.00 0.00 0.00 0.00 0.00 0.00 0.00 0.00 0.00 0.00 0.01 0.02 0.03 0.02 0.00 0.00 0.00 0.00 0.00 0.00 0.00 0.00 0.00 0.00 0.00 0.00 0.00 0.00 0.00 0.00 0.00 0.00 0.00 0.00 0.00 0.00 0.00 0.00 0.01 0.01 0.00 0.00 0.00 0.00 0.00 0.01
0.00 0.00 0.00 0.00 0.00 0.00 0.01 0.01 0.00 0.00 0.00 0.00 0.00 0.00 0.00 0.00 0.00 0.00 0.00 0.00 0.00 0.00 0.00 0.00 0.00 0.00 0.00 0.00 0.00 0.00 0.00 0.00 0.00 0.00 0.00 0.00 0.00 0.00 0.00 0.00 0.00 0.00 0.00 0.00 0.00 0.00 0.00 0.00 0.00
0.00 0.00 0.00 0.00 0.00 0.00 0.00 0.01 0.00 0.00 0.00 0.00 0.00 0.00 0.00 0.00 0.00 0.00 0.00 0.00 0.00 0.00 0.00 0.00 0.00 0.00 0.00 0.00 0.00 0.00 0.00 0.00 0.00 0.00 0.00 0.00 0.00 0.00 0.00 0.00 0.00 0.00 0.00 0.00 0.00 0.00 0.00 0.00 0.00
0.00 0.00 0.00 0.00 0.00 0.01 0.01 0.00 0.00 0.00 0.00 0.00 0.00 0.00 0.00 0.00 0.00 0.00 0.00 0.00 0.00 0.00 0.00 0.00 0.00 0.00 0.00 0.00 0.00 0.00 0.00 0.00 0.00 0.00 0.00 0.00 0.00 0.00 0.00 0.00 0.00 0.00 0.00 0.00 0.00 0.00 0.00 0.00 0.00
0.00 0.00 0.00 0.00 0.00 0.00 0.01 0.00 0.00 0.00 0.00 0.00 0.00 0.00 0.00 0.00 0.00 0.00 0.00 0.00 0.00 0.00 0.00 0.00 0.00 0.00 0.00 0.00 0.00 0.00 0.00 0.00 0.00 0.00 0.00 0.00 0.00 0.00 0.00 0.00 0.00 0.00 0.00 0.00 0.00 0.00 0.00 0.00 0.00
MSLP
1010.43 1010.06 1010.28 1010.31 1011.04 1011.38 1012.39 1012.88 1013.34 1013.36 1014.26 1012.01 1007.29 1007.25 1008.58 1009.32 1010.26 1012.60 1012.45 1013.21 1013.43 1013.58 1014.03 1013.94 1014.06 1014.10 1014.27 1014.49 1014.70 1014.64 1014.63 1014.76 1015.02 1015.25 1015.31 1015.36 1015.49 1015.51 1015.64 1015.71 1015.85 1015.89 1015.88 1015.88 1015.88 1015.89 1015.90 1015.91 1015.87
1010.06 1009.69 1009.89 1010.20 1011.06 1011.69 1012.76 1011.77 1013.05 1012.19 1013.11 1010.24 1008.16 1008.33 1008.45 1010.61 1011.19 1012.48 1013.18 1013.46 1012.76 1013.61 1014.17 1014.29 1014.54 1014.60 1014.87 1014.91 1015.11 1015.12 1015.03 1015.07 1015.29 1015.37 1015.54 1015.61 1015.68 1015.71 1015.70 1015.81 1015.86 1015.91 1015.88 1015.82 1015.83 1015.89 1015.93 1015.94 1015.90
1010.00 1009.80 1010.47 1010.24 1010.88 1011.13 1011.53 1011.92 1011.63 1009.83 1009.43 1007.61 1008.35 1007.99 1008.53 1010.46 1011.60 1012.21 1012.40 1013.02 1013.21 1013.96 1014.36 1014.61 1014.66 1014.89 1015.04 1015.34 1015.46 1015.39 1015.26 1015.30 1015.49 1015.63 1015.65 1015.76 1015.83 1015.87 1015.92 1015.89 1015.91 1015.91 1015.91 1015.87 1015.88 1015.83 1015.82 1015.85 1015.83
1009.76 1010.06 1010.08 1010.37 1011.31 1011.67 1011.35 1010.46 1011.29 1010.34 1009.72 1009.37 1008.54 1009.21 1009.76 1010.07 1010.85 1011.73 1012.56 1013.10 1013.42 1014.10 1014.44 1014.66 1014.79 1015.11 1015.41 1015.58 1015.69 1015.62 1015.49 1015.61 1015.73 1015.68 1015.77 1015.85 1015.91 1015.91 1015.89 1015.92 1015.87 1015.94 1015.84 1015.84 1015.81 1015.77 1015.71 1015.69 1015.65
1009.55 1010.13 1010.35 1010.47 1010.44 1010.87 1012.41 1012.54 1010.67 1010.40 1009.91 1009.70 1009.16 1010.29 1010.50 1010.53 1011.21 1011.97 1012.83 1013.47 1014.09 1014.92 1014.90 1014.87 1014.99 1015.05 1015.37 1015.83 1015.97 1015.84 1015.81 1015.90 1015.93 1015.91 1015.93 1015.93 1015.89 1015.93 1015.90 1015.96 1015.90 1015.95 1015.84 1015.74 1015.64 1015.50 1015.39 1015.30 1015.26
1010.09 1009.91 1010.52 1010.71 1010.99 1011.09 1011.76 1012.31 1010.18 1008.87 1009.49 1010.42 1010.04 1009.75 1010.62 1011.09 1011.71 1013.02 1013.93 1014.16 1014.62 1015.39 1015.16 1015.07 1015.19 1015.44 1015.59 1015.71 1015.95 1016.13 1016.21 1016.23 1016.14 1016.06 1016.01 1015.96 1016.01 1015.98 1016.01 1015.95 1015.88 1015.74 1015.66 1015.59 1015.52 1015.37 1015.24 1015.14 1014.94
1010.02 1010.33 1010.23 1009.98 1010.58 1010.50 1010.63 1011.49 1010.92 1009.60 1009.58 1010.49 1009.76 1010.02 1012.21 1012.09 1011.88 1012.60 1013.59 1013.85 1014.35 1014.47 1015.19 1015.04 1015.36 1015.48 1015.68 1015.87 1015.99 1016.28 1016.36 1016.33 1016.22 1016.20 1016.06 1016.01 1016.06 1016.02 1015.94 1015.89 1015.79 1015.60 1015.55 1015.49 1015.26 1014.98 1014.88 1014.80 1014.67
1008.94 1009.76 1009.77 1009.15 1009.34 1008.86 1010.18 1010.57 1009.81 1008.99 1008.54 1008.98 1009.16 1009.89 1011.68 1011.21 1011.74 1012.41 1013.53 1013.95 1014.55 1015.16 1014.48 1015.06 1015.69 1015.77 1015.70 1016.03 1016.14 1016.31 1016.38 1016.38 1016.41 1016.32 1016.34 1016.28 1016.20 1016.19 1016.09 1015.95 1015.93 1015.77 1015.55 1015.26 1014.96 1014.68 1014.48 1014.31 1014.20
1008.27 1009.28 1009.12 1008.27 1007.86 1008.66 1008.85 1009.70 1009.40 1007.74 1007.95 1008.28 1008.85 1008.86 1009.79 1010.48 1010.96 1012.37 1013.71 1014.45 1014.40 1014.80 1015.38 1015.88 1016.06 1015.98 1015.72 1016.12 1016.35 1016.66 1016.60 1016.70 1016.73 1016.71 1016.73 1016.83 1016.85 1016.67 1016.56 1016.34 1016.18 1015.94 1015.57 1015.26 1014.96 1014.67 1014.33 1014.33 1014.08
1008.23 1008.66 1007.75 1007.11 1006.93 1006.57 1008.40 1007.73 1007.47 1007.50 1007.80 1008.52 1008.73 1008.84 1009.31 1009.94 1010.51 1011.57 1012.50 1013.41 1014.14 1015.19 1015.85 1016.21 1016.37 1016.11 1016.12 1016.06 1016.85 1017.02 1016.74 1016.93 1017.05 1017.06 1017.15 1017.16 1017.21 1017.16 1017.08 1016.87 1016.63 1016.31 1015.83 1015.48 1015.28 1014.89 1014.67 1014.40 1014.11
1007.58 1007.87 1006.78 1006.29 1005.90 1005.76 1006.95 1006.99 1006.58 1006.80 1007.69 1008.27 1008.69 1009.18 1009.50 1009.69 1010.45 1011.67 1012.58 1013.39 1014.13 1014.89 1015.65 1016.15 1016.34 1016.42 1016.56 1016.88 1017.06 1016.99 1017.06 1017.07 1017.31 1017.17 1017.28 1017.35 1017.46 1017.49 1017.31 1017.17 1017.05 1016.79 1016.14 1016.11 1015.69 1015.33 1014.93 1014.60 1014.21
1007.61 1006.47 1005.92 1005.77 1005.35 1005.54 1006.08 1006.38 1006.91 1006.86 1007.00 1007.72 1008.43 1008.97 1009.56 1010.10 1010.90 1011.83 1013.01 1013.90 1014.69 1015.45 1016.32 1016.91 1016.96 1016.86 1016.90 1016.89 1017.13 1017.23 1017.25 1017.21 1017.43 1017.31 1017.34 1017.42 1017.67 1017.69 1017.66 1017.53 1017.31 1017.00 1016.67 1016.43 1016.14 1015.77 1015.23 1014.86 1014.38
1006.46 1005.95 1005.44 1005.19 1005.02 1005.61 1005.69 1006.66 1007.06 1007.16 1007.10 1007.52 1008.29 1008.90 1009.62 1010.76 1011.46 1012.60 1013.35 1014.30 1015.04 1015.86 1016.66 1017.30 1017.48 1017.65 1017.63 1017.67 1017.66 1017.55 1017.49 1017.49 1017.33 1017.23 1017.19 1017.32 1017.69 1017.82 1017.74 1017.55 1017.37 1017.17 1016.89 1016.57 1016.22 1015.74 1015.39 1014.95 1014.50
1005.62 1005.47 1005.34 1005.12 1005.27 1005.65 1005.91 1006.61 1006.75 1007.47 1007.17 1007.75 1008.27 1009.05 1009.68 1010.97 1011.63 1012.73 1013.70 1014.75 1015.46 1016.29 1017.09 1017.62 1017.99 1018.09 1018.14 1018.04 1017.85 1017.82 1017.44 1017.44 1017.44 1017.32 1017.51 1017.56 1017.68 1017.66 1017.59 1017.42 1017.28 1017.09 1016.91 1016.62 1016.35 1015.80 1015.64 1015.16 1014.73
1005.68 1005.95 1005.74 1005.43 1005.56 1005.87 1006.01 1006.86 1007.70 1007.24 1007.18 1007.77 1008.45 1008.95 1010.06 1010.91 1011.70 1012.82 1013.85 1014.88 1015.62 1016.51 1017.23 1017.89 1018.27 1018.40 1018.39 1018.15 1017.90 1017.94 1017.59 1017.57 1017.73 1017.52 1017.65 1017.56 1017.37 1017.34 1017.27 1017.23 1017.19 1016.97 1016.71 1016.52 1016.22 1015.94 1015.60 1015.49 1014.87
1006.52 1006.56 1006.89 1006.00 1005.67 1006.07 1006.35 1007.39 1007.50 1007.47 1007.62 1008.03 1008.39 1009.11 1009.95 1010.69 1011.56 1012.76 1013.76 1014.79 1015.76 1016.60 1017.58 1018.32 1018.45 1018.76 1018.68 1018.33 1018.40 1018.30 1018.19 1018.14 1018.07 1017.94 1017.92 1017.62 1017.30 1017.18 1017.20 1017.21 1017.10 1016.81 1016.80 1016.54 1016.44 1016.29 1015.98 1015.61 1015.06
1007.37 1007.36 1007.09 1006.17 1005.44 1006.14 1006.62 1007.56 1007.57 1007.49 1007.79 1008.21 1008.47 1009.00 1009.78 1010.99 1011.93 1012.82 1013.67 1014.73 1015.70 1016.67 1017.68 1018.45 1018.87 1019.22 1019.23 1018.97 1018.84 1018.69 1018.62 1018.70 1018.58 1018.35 1018.17 1018.08 1017.82 1017.50 1017.56 1017.44 1017.25 1016.95 1016.75 1016.70 1016.57 1016.28 1016.01 1015.52 1015.04
1007.95 1007.75 1007.09 1006.18 1005.23 1005.92 1006.95 1007.34 1007.48 1007.34 1007.60 1008.06 1008.42 1009.00 1009.90 1010.81 1011.89 1012.61 1013.60 1014.67 1015.59 1016.54 1017.47 1018.28 1019.03 1019.47 1019.61 1019.41 1019.30 1019.28 1019.29 1019.25 1018.98 1018.65 1018.72 1018.44 1018.09 1017.85 1017.68 1017.47 1017.22 1016.89 1016.88 1016.70 1016.52 1016.27 1015.88 1015.56 1015.09
1007.35 1007.32 1007.05 1006.13 1005.58 1006.19 1006.63 1007.16 1007.48 1007.50 1007.81 1008.07 1008.57 1008.85 1009.93 1010.67 1011.72 1012.65 1013.56 1014.56 1015.55 1016.47 1017.26 1018.04 1019.03 1019.54 1019.90 1019.95 1020.02 1019.86 1019.96 1019.62 1019.38 1019.35 1018.90 1018.57 1018.46 1018.10 1017.84 1017.64 1017.25 1016.94 1016.85 1016.67 1016.42 1016.12 1015.84 1015.41 1014.97
1007.08 1007.21 1007.23 1006.68 1006.26 1006.79 1007.47 1007.80 1007.68 1008.04 1007.84 1007.75 1008.13 1008.55 1009.72 1011.14 1012.06 1012.94 1013.81 1014.70 1015.49 1016.33 1016.99 1017.87 1018.56 1019.05 1019.66 1019.82 1019.86 1019.83 1019.74 1019.56 1019.44 1019.22 1018.95 1018.78 1018.55 1018.29 1017.95 1017.82 1017.70 1017.37 1016.94 1016.68 1016.54 1016.37 1015.95 1015.38 1014.92
1007.20 1007.63 1007.71 1007.85 1007.38 1007.48 1008.08 1008.71 1008.72 1008.08 1008.00 1007.96 1008.09 1008.44 1009.72 1010.93 1012.27 1013.31 1014.13 1014.78 1015.49 1016.26 1016.73 1017.84 1017.96 1018.44 1018.98 1019.31 1019.40 1019.34 1019.20 1019.08 1019.20 1019.16 1018.91 1018.66 1018.39 1018.28 1018.17 1017.94 1017.74 1017.48 1017.23 1016.91 1016.52 1016.25 1015.98 1015.40 1014.88
1007.62 1007.82 1008.10 1008.56 1009.07 1009.37 1009.39 1010.03 1010.12 1009.94 1009.13 1009.22 1009.19 1009.40 1010.27 1011.34 1012.27 1013.24 1014.20 1015.01 1015.78 1016.22 1016.72 1017.14 1017.54 1017.97 1018.57 1019.03 1019.26 1019.28 1019.23 1019.14 1018.85 1018.91 1018.90 1018.64 1018.18 1018.14 1017.99 1017.86 1017.72 1017.54 1017.13 1016.67 1016.27 1015.96 1015.68 1015.30 1014.75
1007.87 1008.23 1008.94 1009.48 1010.12 1010.73 1011.15 1011.68 1012.01 1011.84 1012.39 1011.97 1011.60 1010.13 1011.18 1011.90 1012.76 1013.93 1014.78 1015.40 1015.77 1015.90 1016.37 1016.80 1017.37 1018.09 1018.60 1018.87 1018.98 1019.33 1019.26 1019.03 1018.51 1018.74 1018.96 1018.83 1018.60 1018.21 1017.92 1017.81 1017.72 1017.42 1016.98 1016.51 1016.11 1015.69 1015.34 1014.96 1014.62
1008.05 1008.67 1009.57 1010.36 1011.29 1012.70 1013.42 1013.83 1013.63 1013.94 1013.86 1013.82 1013.72 1011.74 1011.71 1012.73 1013.70 1014.82 1015.49 1015.74 1015.83 1015.87 1016.62 1017.21 1017.77 1018.13 1018.67 1018.42 1018.27 1018.38 1018.85 1018.81 1018.88 1019.07 1019.09 1018.93 1018.65 1018.32 1017.99 1017.79 1017.65 1017.27 1016.87 1016.38 1015.93 1015.57 1015.23 1014.79 1014.31
1008.85 1009.86 1011.32 1012.40 1013.08 1013.40 1012.93 1014.09 1014.45 1014.12 1014.20 1013.55 1013.39 1012.27 1013.14 1014.20 1014.96 1015.77 1016.18 1016.20 1016.86 1017.16 1017.26 1017.51 1018.00 1018.21 1018.20 1018.21 1018.11 1018.25 1018.93 1018.97 1018.99 1019.08 1019.13 1018.96 1018.67 1018.25 1018.00 1017.76 1017.49 1017.21 1016.60 1016.23 1015.87 1015.58 1015.19 1014.75 1014.26
1009.67 1010.58 1011.96 1013.24 1014.20 1014.34 1013.86 1014.33 1014.50 1013.83 1013.56 1013.01 1013.27 1014.05 1014.50 1015.32 1015.70 1015.99 1016.48 1016.71 1016.88 1016.78 1016.79 1017.35 1017.60 1017.64 1017.95 1018.45 1018.76 1018.65 1018.84 1019.05 1019.06 1019.08 1018.89 1018.76 1018.45 1018.11 1017.77 1017.60 1017.23 1016.91 1016.41 1016.28 1015.83 1015.51 1015.09 1014.52 1013.96
1010.13 1010.99 1011.75 1012.96 1013.93 1014.97 1015.12 1015.25 1014.70 1014.15 1013.74 1013.41 1013.70 1014.38 1015.19 1015.79 1015.95 1016.49 1016.39 1016.61 1017.22 1017.59 1017.61 1017.95 1017.98 1018.22 1018.45 1018.74 1018.85 1018.87 1019.07 1019.12 1019.08 1018.86 1018.88 1018.70 1018.30 1017.91 1017.61 1017.35 1017.06 1016.69 1016.33 1016.17 1015.85 1015.41 1014.89 1014.42 1013.86
1010.53 1010.84 1012.21 1013.80 1015.53 1016.20 1015.97 1016.17 1015.80 1015.12 1014.90 1015.12 1015.47 1015.68 1015.91 1016.19 1016.65 1017.09 1017.59 1018.00 1018.45 1018.65 1018.75 1019.01 1019.07 1019.29 1019.34 1019.32 1019.32 1019.36 1019.27 1019.17 1019.03 1018.93 1018.75 1018.48 1018.05 1017.81 1017.60 1017.22 1016.94 1016.65 1016.24 1015.95 1015.65 1015.23 1014.72 1014.25 1013.85
1011.29 1012.11 1013.55 1015.02 1015.75 1016.60 1016.84 1016.40 1015.13 1015.64 1015.55 1015.40 1015.85 1016.38 1016.73 1017.14 1017.37 1017.99 1018.44 1018.90 1019.50 1019.97 1020.39 1020.48 1020.39 1020.24 1020.01 1019.67 1019.51 1019.46 1019.52 1019.49 1018.96 1018.82 1018.40 1018.20 1017.99 1017.78 1017.51 1017.25 1016.92 1016.55 1016.15 1015.79 1015.49 1015.06 1014.59 1014.22 1013.89
1011.78 1012.64 1013.67 1015.03 1016.06 1016.50 1016.88 1016.75 1015.62 1015.82 1015.92 1016.08 1016.69 1016.92 1017.23 1017.75 1018.26 1018.82 1019.43 1020.06 1020.61 1020.97 1021.01 1021.03 1020.82 1020.59 1020.23 1019.84 1019.71 1019.63 1019.48 1019.42 1019.00 1018.59 1018.33 1018.09 1017.90 1017.68 1017.51 1017.11 1016.67 1016.34 1015.92 1015.58 1015.22 1014.92 1014.60 1014.12 1013.87
Thickness
5825 5829 5829 5819 5779 5773 5747 5755 5768 5763 5740 5755 5828 5820 5803 5805 5795 5759 5807 5804 5803 5799 5796 5797 5794 5793 5792 5790 5788 5789 5790 5789 5786 5785 5785 5784 5783 5783 5782 5781 5779 5779 5778 5778 5778 5777 5777 5777 5777
5826 5829 5823 5805 5766 5746 5736 5775 5757 5770 5760 5783 5820 5814 5806 5784 5802 5796 5791 5798 5803 5797 5794 5793 5788 5787 5784 5785 5784 5784 5785 5785 5782 5782 5780 5780 5779 5778 5779 5777 5777 5776 5775 5775 5775 5775 5775 5775 5775
5824 5826 5796 5783 5768 5753 5752 5774 5772 5799 5793 5801 5806 5821 5809 5787 5798 5797 5808 5802 5799 5793 5789 5785 5785 5784 5783 5779 5778 5780 5781 5781 5779 5778 5778 5777 5776 5775 5774 5774 5773 5772 5772 5772 5771 5771 5772 5771 5771
5816 5807 5800 5769 5756 5763 5773 5790 5783 5784 5796 5789 5807 5787 5804 5811 5804 5807 5804 5799 5795 5788 5784 5782 5781 5778 5775 5775 5774 5775 5776 5775 5773 5774 5774 5772 5771 5770 5770 5770 5769 5767 5768 5767 5766 5767 5767 5767 5768
5814 5795 5765 5765 5775 5778 5767 5770 5784 5780 5784 5783 5799 5776 5784 5803 5808 5800 5791 5786 5778 5773 5777 5778 5777 5777 5774 5769 5769 5770 5770 5769 5768 5768 5768 5766 5766 5765 5765 5763 5763 5762 5763 5763 5763 5763 5764 5765 5765
5783 5790 5753 5747 5762 5769 5765 5769 5788 5799 5796 5784 5781 5794 5790 5797 5793 5786 5782 5778 5770 5768 5773 5773 5772 5769 5768 5768 5767 5765 5763 5762 5762 5762 5761 5761 5760 5759 5758 5758 5758 5758 5758 5758 5758 5759 5760 5760 5761
5777 5767 5756 5766 5758 5770 5773 5778 5777 5789 5783 5770 5791 5790 5769 5782 5792 5790 5779 5782 5773 5777 5770 5771 5767 5765 5764 5763 5762 5759 5758 5757 5757 5756 5756 5755 5754 5753 5754 5753 5753 5754 5752 5752 5754 5756 5756 5755 5756
5792 5777 5766 5779 5771 5776 5774 5783 5790 5793 5792 5803 5803 5784 5757 5783 5792 5789 5778 5775 5770 5767 5775 5769 5761 5760 5761 5758 5756 5754 5753 5752 5751 5750 5748 5749 5748 5746 5744 5745 5745 5743 5745 5747 5748 5751 5751 5752 5754
5812 5764 5756 5775 5793 5779 5788 5773 5794 5819 5804 5805 5805 5802 5799 5799 5797 5779 5770 5768 5774 5771 5765 5759 5756 5755 5757 5753 5751 5747 5746 5744 5742 5741 5739 5738 5737 5736 5735 5736 5736 5737 5738 5739 5741 5742 5744 5743 5745
5792 5761 5773 5804 5817 5806 5782 5797 5805 5803 5794 5788 5795 5807 5807 5801 5795 5781 5775 5764 5762 5756 5755 5753 5750 5754 5752 5750 5744 5739 5740 5739 5737 5733 5730 5729 5727 5725 5723 5724 5724 5725 5728 5730 5731 5731 5732 5734 5737
5798 5771 5801 5810 5820 5829 5809 5807 5816 5802 5783 5787 5783 5794 5800 5797 5786 5775 5774 5770 5764 5756 5749 5747 5747 5745 5742 5738 5737 5736 5734 5731 5730 5728 5724 5721 5718 5716 5716 5714 5713 5713 5717 5716 5718 5720 5722 5724 5725
5785 5806 5813 5818 5822 5825 5815 5814 5799 5798 5797 5803 5797 5797 5796 5790 5777 5771 5764 5761 5758 5753 5742 5737 5738 5738 5736 5735 5732 5728 5726 5724 5719 5719 5716 5713 5709 5706 5704 5702 5701 5702 5704 5703 5703 5706 5709 5711 5713
5799 5811 5820 5821 5824 5820 5825 5802 5796 5795 5805 5808 5802 5795 5792 5778 5774 5768 5764 5758 5754 5746 5738 5730 5730 5727 5725 5723 5722 5719 5717 5714 5712 5710 5709 5708 5702 5698 5696 5695 5692 5690 5692 5692 5692 5693 5694 5697 5699
5817 5815 5813 5820 5818 5815 5809 5803 5796 5798 5812 5799 5798 5788 5786 5772 5772 5765 5759 5750 5746 5741 5733 5727 5721 5717 5715 5714 5714 5711 5711 5708 5705 5702 5699 5695 5692 5689 5688 5687 5685 5683 5681 5681 5680 5681 5681 5683 5683
5812 5792 5799 5808 5810 5804 5813 5789 5778 5799 5806 5796 5792 5791 5777 5771 5769 5759 5754 5747 5742 5734 5726 5718 5713 5709 5707 5706 5706 5704 5703 5699 5695 5692 5687 5685 5682 5680 5677 5676 5673 5671 5670 5668 5669 5669 5669 5668 5669
5790 5787 5758 5791 5800 5799 5793 5754 5785 5795 5791 5785 5785 5785 5772 5767 5764 5758 5753 5745 5738 5730 5719 5712 5707 5702 5699 5699 5695 5693 5690 5687 5683 5679 5674 5672 5670 5668 5665 5661 5659 5659 5655 5652 5650 5649 5649 5652 5654
5772 5740 5754 5771 5800 5790 5781 5762 5780 5791 5786 5780 5778 5776 5768 5755 5753 5751 5749 5742 5733 5724 5712 5702 5697 5692 5689 5688 5686 5683 5678 5673 5669 5665 5662 5656 5653 5652 5648 5645 5642 5641 5640 5635 5631 5631 5630 5632 5634
5737 5746 5758 5769 5792 5787 5769 5765 5775 5786 5783 5779 5777 5771 5760 5753 5745 5745 5741 5734 5726 5717 5708 5697 5689 5682 5678 5676 5673 5669 5664 5658 5654 5651 5645 5640 5638 5635 5633 5629 5626 5624 5620 5617 5613 5611 5612 5610 5610
5769 5763 5759 5778 5794 5781 5770 5770 5768 5777 5778 5772 5769 5769 5754 5749 5744 5738 5733 5728 5718 5709 5702 5694 5680 5672 5666 5662 5657 5653 5647 5643 5639 5633 5629 5626 5622 5620 5616 5612 5609 5605 5600 5596 5592 5591 5590 5590 5587
5767 5756 5751 5775 5787 5777 5761 5757 5772 5769 5769 5772 5769 5767 5752 5741 5734 5728 5721 5716 5710 5702 5697 5687 5677 5668 5660 5654 5649 5643 5636 5631 5627 5622 5617 5611 5606 5601 5597 5592 5587 5582 5579 5576 5569 5564 5564 5568 5566
5760 5749 5746 5748 5769 5771 5761 5738 5752 5773 5773 5769 5770 5769 5751 5739 5726 5720 5713 5708 5702 5692 5688 5677 5670 5665 5658 5649 5640 5632 5628 5625 5616 5608 5604 5600 5593 5584 5577 5571 5565 5561 5557 5553 5549 5545 5542 5547 5549
5738 5758 5753 5748 5728 5706 5747 5687 5734 5736 5751 5751 5747 5747 5741 5732 5727 5719 5708 5698 5690 5684 5675 5671 5665 5659 5648 5639 5630 5624 5619 5612 5606 5597 5591 5584 5578 5569 5560 5552 5546 5541 5538 5536 5533 5530 5528 5529 5534
5741 5753 5743 5741 5722 5715 5717 5688 5699 5707 5691 5703 5714 5737 5727 5724 5714 5705 5695 5688 5682 5678 5671 5662 5654 5642 5635 5629 5623 5615 5610 5605 5599 5586 5574 5565 5557 5549 5541 5534 5528 5524 5521 5519 5517 5518 5519 5520 5522
5759 5743 5730 5725 5712 5674 5682 5674 5675 5679 5673 5669 5680 5716 5719 5711 5704 5692 5683 5677 5673 5670 5656 5645 5635 5629 5620 5618 5612 5606 5597 5589 5578 5566 5558 5549 5541 5534 5527 5520 5515 5511 5509 5508 5509 5509 5509 5511 5514
5734 5711 5664 5662 5661 5665 5698 5667 5664 5685 5682 5689 5686 5703 5697 5689 5680 5672 5668 5664 5652 5646 5641 5634 5624 5616 5610 5603 5596 5589 5576 5568 5558 5548 5540 5532 5527 5522 5517 5511 5507 5504 5503 5502 5501 5501 5502 5504 5507
5720 5710 5665 5650 5650 5662 5698 5660 5660 5693 5696 5697 5695 5684 5682 5673 5669 5668 5659 5651 5646 5641 5637 5626 5616 5613 5602 5590 5578 5571 5562 5552 5542 5533 5527 5521 5517 5513 5509 5505 5503 5501 5500 5497 5497 5496 5497 5499 5501
5710 5689 5713 5681 5685 5659 5661 5663 5674 5684 5690 5693 5689 5684 5672 5666 5664 5655 5653 5646 5637 5627 5622 5615 5606 5595 5584 5573 5564 5555 5543 5532 5524 5519 5512 5509 5506 5505 5503 5500 5500 5497 5496 5493 5492 5492 5493 5492 5493
5711 5720 5668 5658 5632 5636 5651 5645 5641 5660 5660 5662 5658 5659 5660 5659 5651 5642 5635 5629 5620 5613 5608 5597 5585 5572 5563 5552 5541 5531 5522 5515 5510 5506 5501 5500 5500 5499 5497 5497 5495 5492 5491 5489 5487 5487 5488 5487 5486
5689 5679 5671 5666 5655 5628 5626 5637 5668 5652 5655 5657 5654 5648 5643 5642 5637 5630 5624 5614 5603 5590 5577 5567 5558 5549 5541 5533 5525 5515 5507 5501 5501 5497 5496 5495 5494 5493 5492 5491 5488 5487 5485 5484 5482 5483 5484 5482 5480
5701 5687 5675 5630 5640 5644 5625 5618 5670 5651 5652 5649 5644 5640 5637 5630 5623 5616 5606 5594 5579 5569 5561 5552 5545 5535 5526 5519 5512 5506 5500 5494 5491 5491 5490 5489 5488 5488 5486 5485 5484 5482 5481 5478 5477 5478 5478 5478 5476